Location: Danville Conservation Area
(38.8674°N, 91.5143°W)
Time: 17:12:11
(UTC-06:00)

ISS - Pass Details

Date: 04 December 2021
Orbit: 413 x 422 km, 51.6° (Epoch: 20 January)

Event Time Altitude Azimuth Distance (km) Brightness Sun altitude
Rises 18:35:14 0° 311° (NW) 2,382 0.6 -21.1°
Reaches altitude 10° 18:37:23 10° 317° (NW) 1,512 -0.6 -21.5°
Enters shadow 18:39:21 30° 333° (NNW) 786 -2.3 -21.9°
